SCP
0 0 0 0 0 0 0 0 0 0 0 0 0 0 0 0 0 0 0 0 0 0 0 0 0 0 0 0 0 0 0 0 0 0 0 0 0 0 0 0 0 0 0
0 0 0 0 0 0 0 0 0 0 0 0 0 0 0 0 0 0 0 0 0 0 0 0 0 0 0 0 0 0 0 0 0 0 0 0 0 0 0 0 0 0 0
0 0 0 0 0 0 0 0 0 0 0 0 0 0 0 0 0 0 0 0 0 0 0 0 0 0 0 0 0 0 0 0 0 0 0 0 0 0 0 0 0 0 0
0 0 0 0 0 0 0 0 0 0 0 0 0 0 0 0 0 0 0 0 0 0 0 0 0 0 0 0 0 0 0 0 0 0 0 0 0 0 0 0 0 0 0
0 0 0 0 0 0 0 0 0 0 0 0 0 0 0 0 0 0 0 0 0 0 0 0 0 0 0 0 0 0 0 0 0 0 0 0 0 0 0 0 0 0 0
0 0 0 0 0 0 0 0 0 0 0 0 0 0 0 0 0 0 0 0 0 0 0 0 0 0 0 0 0 0 0 0 0 0 0 0 0 0 0 0 0 0 0
0 0 0 0 0 0 0 0 0 0 0 0 0 0 0 0 0 0 0 0 0 0 0 0 0 0 0 0 0 0 0 0 0 0 0 0 0 0 0 0 0 0 0
0 0 0 0 0 0 0 0 0 0 0 0 0 0 0 0 0 0 0 0 0 0 0 0 0 0 0 0 0 0 0 0 0 0 0 0 0 0 0 0 0 0 0
0 0 0 0 0 0 0 0 0 0 0 0 0 0 0 0 0 0 0 0 0 0 0 0 0 0 0 0 0 0 0 0 0 0 0 0 0 0 0 0 0 0 0
0 0 0 0 0 0 0 0 0 0 0 0 0 0 0 0 0 0 0 0 0 0 0 0 0 0 0 0 0 0 0 0 0 0 0 0 0 0 0 0 0 0 0
0 0 0 0 0 0 0 0 0 0 0 0 0 0 0 0 0 0 0 0 0 0 0 0 0 0 0 0 0 0 0 0 0 0 0 0 0 0 0 0 0 0 0
0 0 0 0 0 0 0 0 0 0 0 0 0 0 0 0 0 0 0 0 0 0 0 0 0 0 0 0 0 0 0 0 0 0 0 0 0 0 0 0 0 0 -0
0 0 0 0 0 0 0 0 0 0 0 0 0 0 0 0 0 0 0 0 0 0 0 0 0 0 0 0 0 0 0 0 0 0 0 0 0 0 0 -0 -0 -0 -0
0 0 0 0 0 0 0 0 0 0 0 0 0 0 0 0 0 0 0 0 0 0 0 0 0 0 0 0 0 0 0 0 0 0 0 0 0 0 0 0 0 -0 -0
0 0 0 0 0 0 0 0 0 0 0 0 0 0 0 0 0 0 0 0 0 0 0 0 0 0 0 0 0 0 0 0 0 0 0 0 0 0 0 0 0 0 0
0 0 0 0 0 0 0 0 0 0 0 0 0 0 0 0 0 0 0 0 0 0 0 0 0 0 0 0 0 0 0 0 0 0 0 0 0 0 0 0 0 0 0
0 0 0 0 0 0 0 0 0 0 0 0 0 0 0 0 0 0 0 0 0 0 0 0 0 0 0 0 0 0 0 0 0 0 0 0 0 0 0 0 0 0 0
0 0 0 0 0 0 0 0 0 0 0 0 0 0 0 0 0 0 0 0 0 0 0 0 0 0 0 0 0 0 0 0 0 0 0 0 0 0 0 0 0 0 0
0 0 0 0 0 0 0 0 0 0 0 0 0 0 0 0 0 0 0 0 0 0 0 0 0 0 0 0 0 0 0 0 0 0 0 0 0 0 0 0 0 0 0
0 0 0 0 0 0 0 0 0 0 0 0 0 0 0 0 0 0 0 0 0 0 0 0 0 0 0 0 0 0 0 0 0 0 0 0 0 0 0 0 0 0 0
0 0 0 0 0 0 0 0 0 0 0 0 0 0 0 0 0 0 0 0 0 0 0 0 0 0 0 0 0 0 0 0 0 0 0 0 0 0 0 0 0 0 0
0 0 0 0 0 0 0 0 0 0 0 0 0 0 0 0 0 0 0 0 0 0 0 0 0 0 0 0 0 0 0 0 0 0 0 0 0 0 0 0 0 0 0
0 0 0 0 0 0 0 0 0 0 0 0 0 0 0 0 0 0 0 0 0 0 0 0 0 0 0 0 0 0 0 0 0 0 0 0 0 0 0 0 0 0 0
0 0 0 0 0 0 0 0 0 0 0 0 0 0 0 0 0 0 0 0 0 0 0 0 0 0 0 0 0 0 0 0 0 0 0 0 0 0 0 0 0 0 0
0 0 0 0 0 0 0 0 0 0 0 0 0 0 0 0 0 0 0 0 0 0 0 0 0 0 0 0 0 0 0 0 0 0 0 0 0 0 0 0 0 0 0
0 0 0 0 0 0 0 0 0 0 0 0 0 0 0 0 0 0 0 0 0 0 0 0 0 0 0 0 0 0 0 0 0 0 0 0 0 0 0 0 0 0 0
Wind_Speed_500mb
47 41 39 48 49 49 50 50 53 60 61 59 57 55 51 56 59 54 49 45 50 45 54 62 58 57 54 52 52 53 54 53 51 54 58 57 54 56 55 47 45 46 52
41 42 45 42 42 41 39 43 51 47 45 45 50 53 54 47 46 42 44 46 47 47 50 55 64 58 55 53 53 54 55 57 52 54 55 52 53 52 46 39 53 52 42
55 43 40 40 35 33 37 38 37 37 36 39 40 43 46 39 32 31 36 39 40 36 28 34 52 60 54 52 50 51 52 52 54 49 51 26 23 32 50 38 32 32 52
52 48 43 36 29 37 34 34 32 31 32 33 33 30 36 31 35 39 40 40 43 40 32 30 30 37 47 44 41 41 46 40 39 45 47 49 59 24 11 23 39 39 47
60 52 37 31 30 30 28 28 26 26 28 26 23 22 29 29 36 39 40 40 39 38 35 33 33 32 39 40 43 34 19 25 26 30 29 24 27 31 26 46 43 48 48
46 39 33 29 27 26 26 23 22 21 20 19 17 21 25 32 35 35 32 27 24 25 25 23 31 34 36 41 41 35 28 25 24 15 14 13 12 15 18 34 46 46 44
40 34 30 26 24 23 23 22 19 18 16 14 11 15 24 30 34 34 34 32 32 32 36 38 38 38 34 35 32 30 29 30 29 18 16 18 15 19 25 37 51 63 68
34 32 27 25 26 25 23 21 21 19 16 15 14 15 19 25 31 33 35 36 35 29 26 24 21 18 16 15 14 14 14 16 19 22 22 26 26 30 33 33 40 56 48
40 34 29 29 25 22 24 25 21 19 17 14 14 16 18 22 25 25 24 21 19 16 13 11 9 10 9 9 10 10 9 10 10 12 13 13 14 16 18 21 27 34 29
39 37 34 30 25 28 28 26 24 22 19 18 17 16 16 17 17 17 16 15 14 13 12 12 10 9 9 8 7 7 5 5 5 5 9 11 10 13 16 19 20 26 31
44 38 32 30 29 30 29 28 26 27 24 22 20 19 19 19 17 16 15 15 14 14 14 13 12 10 7 6 4 4 3 2 5 6 8 12 17 22 25 27 29 33 41
43 37 36 37 34 35 33 33 33 33 29 26 25 24 22 21 20 19 19 19 19 18 17 15 12 10 6 4 3 6 9 11 14 19 19 22 23 27 30 35 42 45 49
44 43 44 48 46 42 39 42 43 40 36 35 33 31 28 26 24 23 22 22 22 22 22 18 14 11 8 7 7 8 11 13 14 16 19 25 31 36 42 46 48 51 54
51 55 53 56 54 49 51 51 49 47 46 44 40 36 33 30 27 24 24 25 27 26 24 20 17 14 13 14 14 12 10 10 13 18 23 28 34 38 41 44 47 50 53
62 66 62 62 63 61 63 57 56 55 53 49 46 42 38 35 33 33 32 31 29 28 26 23 20 17 15 12 11 9 8 10 14 18 24 28 33 35 39 42 45 47 51
74 74 73 73 75 76 74 66 64 64 60 57 53 48 43 40 38 35 33 31 29 27 25 23 22 17 14 12 11 8 9 12 14 17 21 26 28 31 33 35 38 41 44
79 83 89 90 92 88 83 77 72 69 66 61 57 51 47 44 39 35 33 32 31 29 28 25 22 17 13 10 7 6 7 11 14 17 19 23 28 32 33 32 33 34 37
80 87 94 94 96 93 88 83 75 73 71 66 59 55 50 46 42 39 37 37 35 33 29 25 21 16 10 8 3 3 6 9 13 17 19 21 26 31 35 35 36 36 37
85 89 84 83 90 92 91 86 81 77 74 69 63 56 51 48 46 43 37 39 37 34 32 27 22 16 10 8 3 3 6 9 12 15 19 23 27 31 37 41 41 41 42
63 72 82 80 86 90 86 84 82 78 74 70 63 58 53 49 46 39 43 41 38 34 31 28 23 18 12 9 8 6 10 10 12 15 18 24 29 32 36 41 43 46 50
50 54 61 71 80 83 84 82 78 76 72 69 65 58 51 46 42 41 42 41 39 34 30 27 22 17 12 9 10 15 16 14 16 17 20 24 28 32 34 37 40 45 51
35 40 54 66 75 79 81 82 76 75 73 70 62 56 53 49 44 42 42 40 38 33 29 26 22 16 12 12 13 15 17 18 17 20 23 26 28 32 34 38 42 44 46
40 43 53 66 70 73 75 72 72 70 70 66 60 53 51 47 43 44 44 42 37 31 30 28 23 15 12 12 13 15 18 20 21 23 24 27 30 33 36 38 41 43 46
47 51 55 62 69 72 72 71 69 67 66 63 58 54 50 44 45 44 40 36 33 31 31 25 19 14 12 13 15 19 20 24 24 23 27 31 35 37 40 39 40 42 46
54 54 56 59 65 68 68 66 65 64 61 59 56 53 47 47 44 41 38 35 32 29 25 20 18 16 14 15 15 17 21 26 29 28 30 31 35 38 42 43 43 45 47
52 55 55 60 63 64 64 62 60 58 59 58 55 50 47 45 45 42 38 35 31 27 24 22 20 17 17 18 18 20 23 28 31 31 34 37 39 41 43 45 47 46 48
Wind_Direction_500mb
255 270 263 268 265 253 253 258 265 274 274 270 265 261 257 265 272 274 271 263 257 261 249 252 258 259 259 258 261 264 266 270 276 279 282 284 285 288 293 295 296 301 304
245 247 257 258 240 246 259 272 282 280 278 275 266 256 255 261 268 272 270 264 262 277 266 251 251 259 259 259 260 264 268 269 273 271 279 280 284 285 291 292 298 302 309
250 246 242 239 244 265 278 276 276 279 281 282 278 258 249 251 257 260 258 257 260 268 268 255 251 253 262 262 264 265 267 272 271 273 271 279 268 276 286 292 311 292 316
235 235 235 235 249 269 266 274 279 283 289 289 281 265 243 240 236 247 248 250 254 251 249 251 251 250 252 261 265 268 269 273 278 277 273 268 271 278 321 318 309 312 316
234 227 225 234 249 259 273 279 280 290 294 290 274 247 230 231 242 244 248 241 240 235 245 249 252 241 240 247 245 246 257 271 285 291 300 337 313 313 316 308 306 311 306
192 204 218 235 247 265 272 267 272 281 288 288 265 221 218 230 236 231 216 218 221 221 234 258 257 267 266 264 266 272 262 262 274 262 261 286 330 337 330 313 320 314 313
191 200 216 233 251 263 253 258 265 271 271 272 270 226 222 230 236 238 241 243 249 255 262 262 264 264 260 256 259 255 262 260 264 264 274 284 281 291 296 303 298 300 300
194 208 221 242 256 247 245 250 254 258 259 255 245 230 220 231 239 248 252 255 255 254 251 250 245 242 245 250 253 258 260 259 260 261 272 277 284 290 292 300 302 306 309
204 213 230 245 239 239 241 247 253 255 246 239 234 229 225 223 225 227 228 228 223 220 216 220 222 228 234 237 233 241 250 257 264 277 282 300 310 304 306 311 312 321 323
207 219 230 235 235 234 237 242 243 242 238 230 219 210 204 200 200 198 197 195 196 198 206 217 226 235 238 240 246 257 260 277 300 319 329 325 336 346 352 356 353 347 337
218 220 228 235 237 235 234 238 238 238 231 221 212 205 198 194 193 195 202 209 217 223 229 239 242 237 228 222 198 146 116 94 72 48 32 32 36 27 17 12 8 357 346
227 228 233 235 236 237 236 239 238 236 228 222 214 210 208 207 210 216 222 223 225 228 232 233 235 240 229 188 139 93 75 70 60 51 34 28 18 12 9 4 1 356 351
218 227 232 235 237 235 234 238 235 230 226 221 219 218 217 218 219 222 226 230 234 231 227 226 224 217 190 152 120 96 81 69 51 33 21 15 7 4 2 359 355 351 346
228 231 234 239 239 239 238 237 235 231 227 224 222 222 222 222 223 226 230 233 230 228 232 230 219 192 164 148 131 120 97 64 36 20 10 5 1 358 354 351 348 345 342
229 236 240 242 243 240 239 236 234 231 229 227 226 224 223 222 229 235 236 234 233 234 230 218 202 183 164 150 128 106 74 43 28 15 2 358 353 350 347 346 343 339 338
239 244 246 246 245 244 242 239 236 232 228 227 226 224 226 232 232 232 233 232 226 219 215 210 202 185 167 137 102 76 43 23 9 4 357 346 342 339 339 338 337 338 338
257 258 253 251 247 243 243 241 236 231 229 227 225 226 228 228 229 231 228 226 221 214 211 206 203 199 183 143 104 54 15 1 354 349 345 336 333 330 331 333 336 336 340
261 261 259 252 249 246 242 239 234 232 229 227 226 227 227 229 227 225 225 225 219 213 211 209 206 203 198 173 134 19 355 347 336 334 332 329 327 329 331 335 334 336 337
265 266 268 262 251 247 241 234 230 229 228 227 226 226 226 225 222 221 220 223 217 212 209 208 207 209 217 227 207 339 336 333 331 331 328 330 335 339 339 337 335 333 329
267 266 264 255 247 245 240 232 230 229 228 225 225 224 221 222 221 216 222 217 214 212 212 210 207 210 224 251 286 316 334 333 323 323 331 337 335 334 335 334 331 331 332
267 266 257 255 248 240 235 229 229 229 228 226 226 224 222 217 217 217 218 216 213 212 216 214 213 214 225 262 300 315 318 326 331 326 324 327 326 327 330 333 333 332 329
270 260 249 242 235 231 228 226 224 227 228 226 224 224 225 223 216 218 218 213 212 211 217 220 219 217 236 260 290 306 317 321 323 321 322 323 325 329 330 329 326 325 324
252 244 236 226 222 221 221 223 225 226 223 222 224 225 221 215 212 215 215 210 209 210 214 218 220 227 243 266 286 297 309 315 323 325 325 328 328 328 327 326 326 327 329
254 235 223 223 218 215 219 223 226 224 222 220 219 215 212 207 209 208 209 214 218 215 215 219 228 233 244 265 285 297 309 309 315 325 325 325 328 326 325 327 330 333 335
251 233 223 221 221 220 221 223 224 222 218 216 213 209 204 203 205 206 208 211 211 213 219 223 232 238 247 260 277 298 310 313 316 327 322 318 319 321 324 326 331 334 335
254 243 234 218 221 225 226 221 218 217 216 210 206 201 200 205 207 206 204 206 212 218 222 227 233 244 255 267 282 287 299 310 311 316 317 321 322 323 325 326 329 333 333
Wind_Speed_850mb
47 41 39 48 49 49 50 50 53 60 61 59 57 55 51 56 59 54 49 45 50 45 54 62 58 57 54 52 52 53 54 53 51 54 58 57 54 56 55 47 45 46 52
41 42 45 42 42 41 39 43 51 47 45 45 50 53 54 47 46 42 44 46 47 47 50 55 64 58 55 53 53 54 55 57 52 54 55 52 53 52 46 39 53 52 42
55 43 40 40 35 33 37 38 37 37 36 39 40 43 46 39 32 31 36 39 40 36 28 34 52 60 54 52 50 51 52 52 54 49 51 26 23 32 50 38 32 32 52
52 48 43 36 29 37 34 34 32 31 32 33 33 30 36 31 35 39 40 40 43 40 32 30 30 37 47 44 41 41 46 40 39 45 47 49 59 24 11 23 39 39 47
60 52 37 31 30 30 28 28 26 26 28 26 23 22 29 29 36 39 40 40 39 38 35 33 33 32 39 40 43 34 19 25 26 30 29 24 27 31 26 46 43 48 48
46 39 33 29 27 26 26 23 22 21 20 19 17 21 25 32 35 35 32 27 24 25 25 23 31 34 36 41 41 35 28 25 24 15 14 13 12 15 18 34 46 46 44
40 34 30 26 24 23 23 22 19 18 16 14 11 15 24 30 34 34 34 32 32 32 36 38 38 38 34 35 32 30 29 30 29 18 16 18 15 19 25 37 51 63 68
34 32 27 25 26 25 23 21 21 19 16 15 14 15 19 25 31 33 35 36 35 29 26 24 21 18 16 15 14 14 14 16 19 22 22 26 26 30 33 33 40 56 48
40 34 29 29 25 22 24 25 21 19 17 14 14 16 18 22 25 25 24 21 19 16 13 11 9 10 9 9 10 10 9 10 10 12 13 13 14 16 18 21 27 34 29
39 37 34 30 25 28 28 26 24 22 19 18 17 16 16 17 17 17 16 15 14 13 12 12 10 9 9 8 7 7 5 5 5 5 9 11 10 13 16 19 20 26 31
44 38 32 30 29 30 29 28 26 27 24 22 20 19 19 19 17 16 15 15 14 14 14 13 12 10 7 6 4 4 3 2 5 6 8 12 17 22 25 27 29 33 41
43 37 36 37 34 35 33 33 33 33 29 26 25 24 22 21 20 19 19 19 19 18 17 15 12 10 6 4 3 6 9 11 14 19 19 22 23 27 30 35 42 45 49
44 43 44 48 46 42 39 42 43 40 36 35 33 31 28 26 24 23 22 22 22 22 22 18 14 11 8 7 7 8 11 13 14 16 19 25 31 36 42 46 48 51 54
51 55 53 56 54 49 51 51 49 47 46 44 40 36 33 30 27 24 24 25 27 26 24 20 17 14 13 14 14 12 10 10 13 18 23 28 34 38 41 44 47 50 53
62 66 62 62 63 61 63 57 56 55 53 49 46 42 38 35 33 33 32 31 29 28 26 23 20 17 15 12 11 9 8 10 14 18 24 28 33 35 39 42 45 47 51
74 74 73 73 75 76 74 66 64 64 60 57 53 48 43 40 38 35 33 31 29 27 25 23 22 17 14 12 11 8 9 12 14 17 21 26 28 31 33 35 38 41 44
79 83 89 90 92 88 83 77 72 69 66 61 57 51 47 44 39 35 33 32 31 29 28 25 22 17 13 10 7 6 7 11 14 17 19 23 28 32 33 32 33 34 37
80 87 94 94 96 93 88 83 75 73 71 66 59 55 50 46 42 39 37 37 35 33 29 25 21 16 10 8 3 3 6 9 13 17 19 21 26 31 35 35 36 36 37
85 89 84 83 90 92 91 86 81 77 74 69 63 56 51 48 46 43 37 39 37 34 32 27 22 16 10 8 3 3 6 9 12 15 19 23 27 31 37 41 41 41 42
63 72 82 80 86 90 86 84 82 78 74 70 63 58 53 49 46 39 43 41 38 34 31 28 23 18 12 9 8 6 10 10 12 15 18 24 29 32 36 41 43 46 50
50 54 61 71 80 83 84 82 78 76 72 69 65 58 51 46 42 41 42 41 39 34 30 27 22 17 12 9 10 15 16 14 16 17 20 24 28 32 34 37 40 45 51
35 40 54 66 75 79 81 82 76 75 73 70 62 56 53 49 44 42 42 40 38 33 29 26 22 16 12 12 13 15 17 18 17 20 23 26 28 32 34 38 42 44 46
40 43 53 66 70 73 75 72 72 70 70 66 60 53 51 47 43 44 44 42 37 31 30 28 23 15 12 12 13 15 18 20 21 23 24 27 30 33 36 38 41 43 46
47 51 55 62 69 72 72 71 69 67 66 63 58 54 50 44 45 44 40 36 33 31 31 25 19 14 12 13 15 19 20 24 24 23 27 31 35 37 40 39 40 42 46
54 54 56 59 65 68 68 66 65 64 61 59 56 53 47 47 44 41 38 35 32 29 25 20 18 16 14 15 15 17 21 26 29 28 30 31 35 38 42 43 43 45 47
52 55 55 60 63 64 64 62 60 58 59 58 55 50 47 45 45 42 38 35 31 27 24 22 20 17 17 18 18 20 23 28 31 31 34 37 39 41 43 45 47 46 48
Wind_Direction_850mb
255 270 263 268 265 253 253 258 265 274 274 270 265 261 257 265 272 274 271 263 257 261 249 252 258 259 259 258 261 264 266 270 276 279 282 284 285 288 293 295 296 301 304
245 247 257 258 240 246 259 272 282 280 278 275 266 256 255 261 268 272 270 264 262 277 266 251 251 259 259 259 260 264 268 269 273 271 279 280 284 285 291 292 298 302 309
250 246 242 239 244 265 278 276 276 279 281 282 278 258 249 251 257 260 258 257 260 268 268 255 251 253 262 262 264 265 267 272 271 273 271 279 268 276 286 292 311 292 316
235 235 235 235 249 269 266 274 279 283 289 289 281 265 243 240 236 247 248 250 254 251 249 251 251 250 252 261 265 268 269 273 278 277 273 268 271 278 321 318 309 312 316
234 227 225 234 249 259 273 279 280 290 294 290 274 247 230 231 242 244 248 241 240 235 245 249 252 241 240 247 245 246 257 271 285 291 300 337 313 313 316 308 306 311 306
192 204 218 235 247 265 272 267 272 281 288 288 265 221 218 230 236 231 216 218 221 221 234 258 257 267 266 264 266 272 262 262 274 262 261 286 330 337 330 313 320 314 313
191 200 216 233 251 263 253 258 265 271 271 272 270 226 222 230 236 238 241 243 249 255 262 262 264 264 260 256 259 255 262 260 264 264 274 284 281 291 296 303 298 300 300
194 208 221 242 256 247 245 250 254 258 259 255 245 230 220 231 239 248 252 255 255 254 251 250 245 242 245 250 253 258 260 259 260 261 272 277 284 290 292 300 302 306 309
204 213 230 245 239 239 241 247 253 255 246 239 234 229 225 223 225 227 228 228 223 220 216 220 222 228 234 237 233 241 250 257 264 277 282 300 310 304 306 311 312 321 323
207 219 230 235 235 234 237 242 243 242 238 230 219 210 204 200 200 198 197 195 196 198 206 217 226 235 238 240 246 257 260 277 300 319 329 325 336 346 352 356 353 347 337
218 220 228 235 237 235 234 238 238 238 231 221 212 205 198 194 193 195 202 209 217 223 229 239 242 237 228 222 198 146 116 94 72 48 32 32 36 27 17 12 8 357 346
227 228 233 235 236 237 236 239 238 236 228 222 214 210 208 207 210 216 222 223 225 228 232 233 235 240 229 188 139 93 75 70 60 51 34 28 18 12 9 4 1 356 351
218 227 232 235 237 235 234 238 235 230 226 221 219 218 217 218 219 222 226 230 234 231 227 226 224 217 190 152 120 96 81 69 51 33 21 15 7 4 2 359 355 351 346
228 231 234 239 239 239 238 237 235 231 227 224 222 222 222 222 223 226 230 233 230 228 232 230 219 192 164 148 131 120 97 64 36 20 10 5 1 358 354 351 348 345 342
229 236 240 242 243 240 239 236 234 231 229 227 226 224 223 222 229 235 236 234 233 234 230 218 202 183 164 150 128 106 74 43 28 15 2 358 353 350 347 346 343 339 338
239 244 246 246 245 244 242 239 236 232 228 227 226 224 226 232 232 232 233 232 226 219 215 210 202 185 167 137 102 76 43 23 9 4 357 346 342 339 339 338 337 338 338
257 258 253 251 247 243 243 241 236 231 229 227 225 226 228 228 229 231 228 226 221 214 211 206 203 199 183 143 104 54 15 1 354 349 345 336 333 330 331 333 336 336 340
261 261 259 252 249 246 242 239 234 232 229 227 226 227 227 229 227 225 225 225 219 213 211 209 206 203 198 173 134 19 355 347 336 334 332 329 327 329 331 335 334 336 337
265 266 268 262 251 247 241 234 230 229 228 227 226 226 226 225 222 221 220 223 217 212 209 208 207 209 217 227 207 339 336 333 331 331 328 330 335 339 339 337 335 333 329
267 266 264 255 247 245 240 232 230 229 228 225 225 224 221 222 221 216 222 217 214 212 212 210 207 210 224 251 286 316 334 333 323 323 331 337 335 334 335 334 331 331 332
267 266 257 255 248 240 235 229 229 229 228 226 226 224 222 217 217 217 218 216 213 212 216 214 213 214 225 262 300 315 318 326 331 326 324 327 326 327 330 333 333 332 329
270 260 249 242 235 231 228 226 224 227 228 226 224 224 225 223 216 218 218 213 212 211 217 220 219 217 236 260 290 306 317 321 323 321 322 323 325 329 330 329 326 325 324
252 244 236 226 222 221 221 223 225 226 223 222 224 225 221 215 212 215 215 210 209 210 214 218 220 227 243 266 286 297 309 315 323 325 325 328 328 328 327 326 326 327 329
254 235 223 223 218 215 219 223 226 224 222 220 219 215 212 207 209 208 209 214 218 215 215 219 228 233 244 265 285 297 309 309 315 325 325 325 328 326 325 327 330 333 335
251 233 223 221 221 220 221 223 224 222 218 216 213 209 204 203 205 206 208 211 211 213 219 223 232 238 247 260 277 298 310 313 316 327 322 318 319 321 324 326 331 334 335
254 243 234 218 221 225 226 221 218 217 216 210 206 201 200 205 207 206 204 206 212 218 222 227 233 244 255 267 282 287 299 310 311 316 317 321 322 323 325 326 329 333 333